カタログに戻る

LYRA-1

運用中科学SSO
NORAD 62664·PAYLOAD·🇦🇺 Australia

打ち上げ Jan 14, 2025 から Vandenberg Space Force Base

Loading…

次のパス (今後24時間)

TLE

最新Source: Space-Track

元期: Sep 14, 2026, 15:01 UTC

1 62664U 25009BH  26257.62570722  .00007546  00000-0  35101-3 0  9998
2 62664  97.3905 330.3870 0007441 234.1434 125.9110 15.20211974 92002

AllMySatでLYRA-1をリアルタイム追跡

Download on the App Store